Regional Weather Roundup
Issued by NWS

Home | Current Version | Previous Version | Graphics & Text | Print | Product List | Glossary On
Versions: 1 2 3 4 5 6 7 8 9 10 11 12 13 14 15 16 17 18 19 20 21 22 23 24 25 26 27 28 29 30 31 32 33 34 35 36 37 38 39 40 41 42 43 44 45 46 47 48 49 50
000
ASUS43 KMPX 261401
RWRMN
WEATHER ROUNDUP FOR MINNESOTA
NATIONAL WEATHER SERVICE TWIN CITIES/CHANHASSEN MN
900 AM CDT FRI MAY 26 2017


NOTE: "FAIR" INDICATES FEW OR NO CLOUDS BELOW 12,000 FEET WITH NO
SIGNIFICANT WEATHER AND/OR OBSTRUCTIONS TO VISIBILITY. N/A MEANS
CURRENT SKY AND/OR WEATHER CONDITIONS ARE NOT AVAILABLE.

MNZ060>063-068>070-261500-
   Twin Cities Metro

CITY           SKY/WX    TMP DP  RH WIND       PRES   REMARKS
TWIN CITIES    CLOUDY    65  53  65 S9        29.73R
ST PAUL        PTSUNNY   63  55  75 S9        29.73R
CRYSTAL        MOSUNNY   65  52  62 S6        29.71R
BLAINE         PTSUNNY   66  55  68 S7        29.72R
LAKEVILLE      CLOUDY    63  54  72 S7        29.73R
EDEN PRAIRIE   CLOUDY    67  54  63 S8        29.71R
SOUTH ST PAUL  PTSUNNY   64  54  70 S6        29.73R
LAKE ELMO      FAIR      63  55  77 S8        29.74R
$$
MNZ001>005-007-008-013>017-022>024-027-028-261500-
   Northwest Minnesota

CITY           SKY/WX    TMP DP  RH WIND       PRES   REMARKS
BEMIDJI        SUNNY     62  53  73 SW9       29.66R
HALLOCK        SUNNY     63  50  63 S3        29.61R
ROSEAU         SUNNY     61  52  72 CALM      29.62R
WARROAD        SUNNY     61  54  77 S5        29.62S
CROOKSTON      SUNNY     61  48  63 W7        29.64S
FOSSTON        SUNNY     61  48  63 W6        29.66S
DETROIT LAKES  SUNNY     61  48  63 W6        29.68S
MOORHEAD       SUNNY     59  46  63 W9        29.68R
PARK RAPIDS    SUNNY     62  51  67 W7        29.66S
MAHNOMEN       FAIR      60  48  64 W8        29.67R
$$
MNZ006-009>011-018-025>026-261500-
   North Central Minnesota

CITY           SKY/WX    TMP DP  RH WIND       PRES   REMARKS
BAUDETTE       MOSUNNY   63  54  72 S9        29.63S
FLAG ISLAND    RAIN      55  52  88 S8        29.60S
INTL FALLS     CLOUDY    60  52  74 VRB7      29.65F
WASKISH        PTSUNNY   63  55  77 S7        29.64S
BIG FORK       MOSUNNY   61  54  77 S7        29.66F
LONGVILLE      MOSUNNY   61  54  77 S7        29.68R
GRAND RAPIDS   CLOUDY    58  53  84 S13       29.70S
CRANE LAKE     CLOUDY    57  52  82 S5        29.70F
COOK           CLOUDY    57  52  82 SE3       29.70F
WALKER         FAIR      60  53  76 S6        29.66S
$$
MNZ012-019>021-037-261500-
   Northeast Minnesota

CITY           SKY/WX    TMP DP  RH WIND       PRES   REMARKS
DULUTH         CLOUDY    52  48  86 SE9       29.73S
ELY            CLOUDY    55  48  76 SE6       29.72S
HIBBING        CLOUDY    54  52  93 SE7       29.70S
EVELETH        CLOUDY    58  51  78 S6        29.73R
DULUTH HARBOR  CLOUDY    45  43  93 NE7       29.76S
TWO HARBORS    CLOUDY    52  46  82 E6        29.74R
SILVER BAY     CLOUDY    55  54  94 CALM      29.74R
GRAND MARAIS     N/A     47  44  90 NE9       29.77
G MARAIS ARPRT CLOUDY    54  46  76 CALM      29.78F
$$
MNZ029>031-032-039>041-046>048-054>057-064-261500-
   West Central Minnesota

CITY           SKY/WX    TMP DP  RH WIND       PRES   REMARKS
FERGUS FALLS   SUNNY     57  48  72 NW8       29.69R
WHEATON        SUNNY     59  46  63 W9        29.73R
MORRIS         MOSUNNY   61  50  67 NW13      29.71R
ALEXANDRIA     SUNNY     61  52  72 W9        29.70S
ELBOW LAKE     FAIR      57  50  77 NW9       29.71R
WADENA         SUNNY     59  54  82 W6        29.67S
GLENWOOD       SUNNY     59  54  82 W8        29.71R
APPLETON       SUNNY     63  48  59 NW10      29.72R
BENSON         SUNNY     63  48  59 N9        29.73R
ORTONVILLE     MOSUNNY   61  48  63 W9        29.72S
MADISON        MOSUNNY   63  52  67 NW10      29.73R
WILLMAR        FAIR      61  54  77 W12       29.72R
$$
MNZ033>034-036-042>043-049>051-058-059-261500-
   Central Minnesota

CITY           SKY/WX    TMP DP  RH WIND       PRES   REMARKS
ST CLOUD       CLOUDY    63  55  75 S6        29.69S
SAUK CENTRE    FAIR      60  54  80 W8        29.70S
PAYNESVILLE    MOSUNNY   60  53  77 W9        29.70S
AITKIN         MOSUNNY   61  54  77 S7        29.68R
PINE RIVER     MOSUNNY   61  54  77 S3        29.71F
BRAINERD       MOSUNNY   62  54  74 SW9       29.69R
STAPLES        MOSUNNY   61  54  77 CALM      29.67F
LONG PRAIRIE   FAIR      59  52  77 S5        29.70R
LITTLE FALLS   MOSUNNY   59  52  77 SW3       29.70S
LITCHFIELD     CLOUDY    63  55  77 W5        29.70S
BUFFALO        MOSUNNY   64  53  67 S6        29.72R
MAPLE LAKE     PTSUNNY   64  57  77 CALM      29.71S
HUTCHINSON     SUNNY     63  56  77 SW5       29.72R
$$
MNZ037-044-045-052-053-261500-
   East Central Minnesota

CITY           SKY/WX    TMP DP  RH WIND       PRES   REMARKS
PRINCETON      MOSUNNY   64  55  72 SE6       29.70S
MORA           CLOUDY    59  54  82 S5        29.72S
CAMBRIDGE      CLOUDY    66  54  63 S9        29.70R
RUSH CITY      CLOUDY    61  55  78 S7        29.72R
MOOSE LAKE     CLOUDY    54  50  87 CALM      29.70S
HINCKLEY       CLOUDY    61  55  82 S7        29.72R
CLOQUET        CLOUDY    52  46  82 E5        29.73R
MCGREGOR       CLOUDY    59  54  82 S8        29.70S
$$
MNZ071>073-080-081-089-090-097-098-261500-
   Southwest Minnesota

CITY           SKY/WX    TMP DP  RH WIND       PRES   REMARKS
MONTEVIDEO     SUNNY     63  52  67 NW9       29.73R
CANBY          MOSUNNY   62  51  68 NW12      29.75R
MARSHALL       CLOUDY    61  52  72 NW13      29.74R
REDWOOD FALLS  CLOUDY    62  52  69 NW16      29.71R
OLIVIA         CLOUDY    59  52  77 NW8       29.70S
PIPESTONE      MOSUNNY   59  46  63 N16G22    29.76R
WINDOM         PTSUNNY   64  54  68 W12       29.73R
WORTHINGTON    CLOUDY    63  53  70 NW13      29.76R
JACKSON        CLOUDY    63  54  72 SW5       29.75R
TRACY          MOSUNNY   62  52  70 NW14G21   29.74R
SLAYTON        CLOUDY    59  52  78 NW13      29.75R
$$
MNZ065>067-074>077-082>085-091>093-261500-
   South Central Minnesota

CITY           SKY/WX    TMP DP  RH WIND       PRES   REMARKS
MANKATO          N/A     64  54  69 S10       29.74R
NEW ULM        CLOUDY    63  54  72 SW5       29.72R
ST JAMES       CLOUDY    63  55  77 S7        29.74R
FAIRMONT       CLOUDY    61  54  77 S9        29.75R
GLENCOE        PTSUNNY   65  59  80 SW5       29.71R
FARIBAULT      CLOUDY    64  55  72 S7        29.75R
OWATONNA       PTSUNNY   63  54  72 SE12      29.75R
WASECA         CLOUDY    61  52  72 SE5       29.76R
ALBERT LEA     CLOUDY    61  54  77 S9        29.76R
$$
MNZ078>079-086>088-094>096-261500-
   Southeast Minnesota

CITY           SKY/WX    TMP DP  RH WIND       PRES   REMARKS
ROCHESTER      MOSUNNY   62  56  80 S10       29.77S
RED WING       CLOUDY    64  54  68 SE7       29.74R
STANTON        CLOUDY    65  54  68 S12       29.73R
DODGE CENTER   CLOUDY    61  54  77 SE10      29.76R
WINONA         CLOUDY    63  55  77 SE7       29.77S
AUSTIN         MOSUNNY   63  54  72 S6        29.76R
PRESTON        CLOUDY    63  53  72 S8        29.78R
$$
ABBREVIATIONS USED IN REMARKS
   TC - TEMPERATURES IN CELSIUS
  WCI - WIND CHILL INDEX
   HX - HEAT INDEX
  VSB - VISIBILITY
$$



USA.gov is the U.S. government's official web portal to all federal, state and local government web resources and services.